Location: Ar Ranvel
(48.3000°N, 4.8833°W)
Time: 10:08:53
(UTC+00:00)

Cosmos 1461 - Pass Details

Date: 16 June 2021
Orbit: 513 x 649 km, 65.0° (Epoch: 03 August)

Event Time Altitude Azimuth Distance (km) Brightness Sun altitude
Rises 21:20:57 0° 323° (NW) 2,838 9.0 -7.8°
Reaches altitude 10° 21:23:17 10° 328° (NNW) 1,909 7.2 -8.1°
Maximum altitude 21:27:31 58° 48° (NE) 664 3.2 -8.6°
Enters shadow 21:31:20 11° 127° (SE) 1,735 4.7 -9.0°
